Location: �terpigny
(49.8910°N, 2.9249°E)
Time: 19:34:19
(UTC+00:00)

NANOSAT C BR1 - Pass Details

Date: 08 July 2022
Orbit: 584 x 599 km, 98.0° (Epoch: 17 August)

Event Time Altitude Azimuth Distance (km) Brightness Sun altitude
Rises 00:35:52 0° 33° (NNE) 2,857 ? -17.0°
Reaches altitude 10° 00:39:32 10° 66° (ENE) 1,949 ? -16.9°
Maximum altitude 00:41:02 12° 87° (E) 1,839 ? -16.8°
Drops below altitude 10° 00:42:33 10° 108° (ESE) 1,945 ? -16.8°
Enters shadow 00:44:15 - 127° (SE) 2,283 ? -16.7°
